Main page
METAR-TAF:

METAR-TAF

Airports :

Carmi Municipal Airport

Carmi, Illinois, United States

latitude: 38-05-22N, longitude: 088-07-23W, elevation: 387 ft

Current weather observation

The report was made 27 minutes ago, at 22:15 UTC
Wind 7 mph from the East/Southeast
Temperature 82°F
Humidity 51%
Pressure 30.11 in. Hg
Visibility: 10 miles
Clear sky

METAR: KCUL 212215Z AUTO 11006KT 10SM CLR 28/17 A3011 RMK AO2 T02840168

Time: 17:42 (22:42 UTC)


TAF: missing

Weather observations and forecasts of more than 4000 airports (METAR and TAF reports).

The available stations are represented by yellow and red dots on the map.

Hover mouse over dot to see the name of the station.

Then click to see weather observations and forecasts.

To change the map : click on the green buttons with a black cross to zoom in, on the green button with a dash to zoom out, or on the green arrows for adjacent maps.


METAR-TAF: